Monticello, AR

12:02 AM CDT on August 25, 2016 (GMT -0500)
Monticello Municipal-Ellis

Weather History for KLLQ - January, 2014

Change the Weather History Date:

Tuesday, January 28, 2014

  Actual Average Record
Temperature  
Mean Temperature 21 °F -  
Max Temperature 28 °F 55 °F 79 °F (1975)
Min Temperature 12 °F 32 °F 5 °F (1963)
Degree Days  
Heating Degree Days 44    
Moisture  
Dew Point 3 °F    
Average Humidity 47    
Maximum Humidity 81    
Minimum Humidity 31    
Precipitation  
Precipitation 0.00 in - - ()
Sea Level Pressure  
Sea Level Pressure 30.43 in    
Wind  
Wind Speed 8 mph (NNE)    
Max Wind Speed 17 mph    
Max Gust Speed 24 mph    
Visibility 10 miles    
Events      
Averages and records for this station are not official NWS values.
T = Trace of Precipitation, MM = Missing Value Source: NWS Daily Summary

Daily Weather History Graph

Daily Weather History Graph

Search for Another Location

Airport or City:

Trip Planner

Search our weather history database for the weather conditions in past years. The results will help you decide how hot, cold, wet, or windy it might be!

Date:

Astronomy

Jan. 28, 2014 Rise Set
Actual Time 7:05 AM CST 5:34 PM CST
Civil Twilight 6:39 AM CST 6:00 PM CST
Nautical Twilight 6:09 AM CST 6:30 PM CST
Astronomical Twilight 5:40 AM CST 7:00 PM CST
Moon 4:46 AM CST (1/28) 3:26 PM CST (1/28)
Length of Visible Light 11h 21m
Length of Day
10h 28m
Waning Crescent, 7% of the Moon is Illuminated
Jan 28
Waning Crescent
Jan 30
New
Feb 6
First Quarter
Feb 14
Full
Feb 22
Last Quarter

Hourly Weather History & Observations

Time (CST) Temp. Windchill Dew Point Humidity Pressure Visibility Wind Dir Wind Speed Gust Speed Precip Events Conditions
12:53 AM 24.1 °F 15.2 °F -2.9 °F 31% 30.36 in 10.0 mi NNE 8.1 mph 24.2 mph N/A   Overcast
1:53 AM 24.1 °F 10.6 °F -2.9 °F 31% 30.35 in 10.0 mi NE 17.3 mph 23.0 mph N/A   Overcast
2:53 AM 24.1 °F 13.1 °F -0.0 °F 35% 30.36 in 10.0 mi NE 11.5 mph 21.9 mph N/A   Overcast
3:53 AM 24.1 °F 13.1 °F -0.0 °F 35% 30.38 in 10.0 mi NE 11.5 mph 21.9 mph N/A   Overcast
4:53 AM 23.0 °F 15.8 °F -0.0 °F 37% 30.38 in 10.0 mi Variable 5.8 mph - N/A   Overcast
5:53 AM 21.9 °F 9.8 °F -0.9 °F 37% 30.39 in 10.0 mi NE 12.7 mph 20.7 mph N/A   Overcast
6:53 AM 21.9 °F 11.0 °F 1.0 °F 40% 30.40 in 10.0 mi NE 10.4 mph 18.4 mph N/A   Overcast
7:53 AM 19.9 °F 9.3 °F 5.0 °F 52% 30.42 in 10.0 mi NNE 9.2 mph 19.6 mph N/A   Overcast
8:53 AM 19.9 °F 7.9 °F 6.1 °F 55% 30.46 in 10.0 mi NNE 11.5 mph 23.0 mph N/A   Overcast
9:53 AM 21.0 °F 10.6 °F 5.0 °F 50% 30.50 in 10.0 mi NE 9.2 mph 21.9 mph N/A   Overcast
10:53 AM 21.9 °F 13.4 °F 6.1 °F 51% 30.50 in 10.0 mi Variable 6.9 mph 19.6 mph N/A   Overcast
11:53 AM 21.9 °F 11.7 °F 8.1 °F 55% 30.49 in 10.0 mi NNE 9.2 mph 18.4 mph 0.00 in   Overcast
12:53 PM 23.0 °F 13.9 °F 8.1 °F 53% 30.45 in 10.0 mi North 8.1 mph - 0.00 in   Overcast
1:53 PM 25.0 °F 14.8 °F 6.1 °F 45% 30.42 in 10.0 mi NNW 10.4 mph - N/A   Overcast
2:53 PM 26.1 °F 18.4 °F 1.0 °F 34% 30.41 in 10.0 mi NNW 6.9 mph - N/A   Overcast
3:53 PM 28.0 °F 21.7 °F 1.0 °F 31% 30.41 in 10.0 mi Variable 5.8 mph - N/A   Clear
4:53 PM 27.0 °F 20.5 °F 1.0 °F 33% 30.40 in 10.0 mi North 5.8 mph - N/A   Clear
5:53 PM 24.1 °F - 1.0 °F 37% 30.41 in 10.0 mi Calm Calm - N/A   Clear
6:53 PM 21.0 °F - 3.0 °F 46% 30.43 in 10.0 mi Calm Calm - N/A   Clear
7:53 PM 17.1 °F - 5.0 °F 59% 30.45 in 10.0 mi Calm Calm - N/A   Clear
8:53 PM 18.0 °F - 5.0 °F 57% 30.45 in 10.0 mi Calm Calm - N/A   Clear
9:53 PM 16.0 °F - 7.0 °F 68% 30.47 in 10.0 mi Calm Calm - N/A   Clear
10:53 PM 14.0 °F - 7.0 °F 74% 30.47 in 10.0 mi Calm Calm - N/A   Clear
11:53 PM 12.9 °F - 8.1 °F 81% 30.47 in 10.0 mi Calm Calm - N/A   Clear